Regional Weather Roundup
Issued by NWS

Home | Current Version | Previous Version | Graphics & Text | Print | Product List | Glossary On
Versions: 1 2 3 4 5 6 7 8 9 10 11 12 13 14 15 16 17 18 19 20 21 22 23 24 25 26 27 28 29 30 31 32 33 34 35 36 37 38 39 40 41 42 43 44 45 46 47 48 49
000
ASUS45 KCYS 290510
RWRWY

WYOMING REGIONAL WEATHER ROUNDUP
NATIONAL WEATHER SERVICE CHEYENNE WY
1000 PM MST WED JAN 28 2015

NOTE:  "FAIR" INDICATES FEW OR NO CLOUDS BELOW 12,000 FEET
WITH NO SIGNIFICANT WEATHER AND/OR OBSTRUCTIONS TO VISIBILITY.

WYZ001-290600-
YELLOWSTONE NATIONAL PARK

CITY           SKY/WX    TMP DP  RH WIND       PRES   REMARKS
LK YELLOWSTONE   N/A     18  15  88 CALM      30.39R
W YELLOWSTONE  NOT AVBL

$$
WYZ002>013-054>058-071-098>099-290600-
NORTHERN WYOMING

CITY           SKY/WX    TMP DP  RH WIND       PRES   REMARKS
JACKSON        FAIR      28  28 100 N5        30.37R WCI  23
CODY           MOCLDY    36  30  80 NW6       30.38R WCI  31
GREYBULL       FOG       32  32 100 CALM      30.36R VSB 1/4
WORLAND        MOCLDY    36  29  75 N3        30.35R
SHERIDAN       CLOUDY    36  29  75 N7        30.37R WCI  30
BUFFALO        CLOUDY    34  31  88 N15G23    30.36R WCI  24
GILLETTE       FAIR      32  27  81 NW14      30.35R WCI  22
HULETT           N/A    N/A N/A N/A MISG        N/A
NEWCASTLE      FAIR      30  27  86 NW10      30.33R WCI  21

$$
WYZ014>020-022>026-101>103-290600-
CENTRAL WYOMING

CITY           SKY/WX    TMP DP  RH WIND       PRES   REMARKS
BIG PINEY      FAIR      27  22  81 SE5       30.35R WCI  22
PINEDALE       FAIR      28  23  80 W12       30.34R WCI  18
DUBOIS         FAIR      30  27  86 S5        30.33R WCI  25
LANDER         CLOUDY    37  30  75 W3        30.34R
RIVERTON       CLOUDY    37  28  70 E5        30.35R WCI  33
CASPER         CLOUDY    34  30  85 N6        30.35R WCI  29
DOUGLAS        CLOUDY    38  27  64 NW10      30.34R WCI  31

$$
WYZ021-027>030-104>119-290600-
SOUTHERN WYOMING

CITY           SKY/WX    TMP DP  RH WIND       PRES   REMARKS
EVANSTON       MOCLDY    32  29  88 E3        30.36R
KEMMERER       FAIR      30  28  93 NW8       30.35R WCI  23
FORT BRIDGER   FAIR      34  32  94 SW9       30.37S WCI  26
ROCK SPRINGS   CLOUDY    33  29  85 W9        30.33R WCI  25
DIXON          CLOUDY    34  32  92 CALM      30.34S
RAWLINS        CLOUDY    35  29  78 CALM      30.31R
SARATOGA       CLOUDY    32  32 100 MISG      30.31S
LARAMIE        FLURRIES  30  28  92 N8        30.30R WCI  22
CHEYENNE       CLOUDY    37  24  59 N15       30.29R WCI  28
TORRINGTON     CLOUDY    41  26  55 NW16      30.28R
PINE BLUFFS    CLOUDY    37  30  75 N15       30.28R WCI  28

$$


USA.gov is the U.S. government's official web portal to all federal, state and local government web resources and services.